Flag for India Weather past 2 weeks in Lucknow, Uttar Pradesh, India

Now
82 °F

Passing clouds.


Feels Like: 92 °F
Forecast: 81 / 100 °F
Wind: 6 mph from East

Location: Lucknow / Amausi

Current Time: Aug 31, 2014 at 3:59:43 AM

Latest Report: Aug 31, 2014 at 3:00 AM


Visibility: 2 mi

Pressure: 29.56 "Hg

Humidity: 89%

Dew point: 79 °F

Location of LucknowLocation

Historic Weather in Lucknow — Graph

°F

Lucknow temperature yesterday

Maximum temperature yesterday: 100 °F (at 12:30 PM)
Minimum temperature yesterday: 81 °F (at 6:00 AM)
Average temperature yesterday: 91 °F

Past Weeks' High & Low Weather Summary

 TemperatureHumidityPressure
High106 °F (Aug 26, 3:30 PM)94% (Aug 16, 5:00 AM)29.77 "Hg (Aug 16, 5:00 AM)
Low79 °F (Aug 16, 5:00 AM)42% (Aug 24, 5:00 PM)29.45 "Hg (Aug 26, 5:30 PM)
Average91 °F69%29.62 "Hg
* Reported Aug 16 3:00 AM — Aug 31 3:00 AM, Lucknow, Weather by CustomWeather, © 2014

Note: Actual official high and low records may vary slightly from our data, if they occured in-between our weather recording intervals... More about our weather records

Advertising

Lucknow weather history for previous 24 hours

 ConditionsComfort  
Time TempWeatherWind HumidityBarometerVisibility
3:00 AM
Aug 31
82 °FPassing clouds.6 mph89%29.56 "Hg2 mi
2:00 AM82 °FPassing clouds.6 mph84%29.56 "Hg2 mi
1:00 AM84 °FPassing clouds.6 mph84%29.56 "Hg2 mi
11:00 PM
Aug 30
86 °FPassing clouds.6 mph79%29.59 "Hg2 mi
10:00 PM86 °FPassing clouds.3 mph84%29.59 "Hg3 mi
9:00 PM86 °FPassing clouds.5 mph84%29.59 "Hg3 mi
8:30 PM86 °FPassing clouds.2 mph79%29.56 "Hg3 mi
8:00 PM88 °FPassing clouds.2 mph75%29.56 "Hg3 mi
7:30 PM90 °FPartly cloudy.2 mph75%29.56 "Hg3 mi
7:00 PM90 °FPartly cloudy.3 mph75%29.53 "Hg3 mi
6:30 PM91 °FBroken clouds.3 mph71%29.53 "Hg3 mi
6:00 PM95 °FBroken clouds.5 mph63%29.53 "Hg3 mi
5:30 PM95 °FBroken clouds.5 mph63%29.50 "Hg3 mi
5:00 PM95 °FThunderstorms. Broken clouds.2 mph63%29.50 "Hg3 mi
4:30 PM95 °FThunderstorms. Broken clouds.2 mph63%29.50 "Hg3 mi
4:00 PM95 °FThunderstorms. Broken clouds.3 mph67%29.53 "Hg3 mi
3:30 PM99 °FThunderstorms. Broken clouds.6 mph60%29.53 "Hg3 mi
3:00 PM99 °FBroken clouds.5 mph57%29.53 "Hg3 mi
2:30 PM95 °FBroken clouds.No wind63%29.56 "Hg3 mi
2:00 PM97 °FBroken clouds.5 mph60%29.56 "Hg3 mi
1:30 PM99 °FScattered clouds.7 mph53%29.59 "Hg3 mi
1:00 PM100 °FScattered clouds.7 mph53%29.59 "Hg3 mi
12:30 PM100 °FScattered clouds.6 mph53%29.62 "Hg3 mi
12:00 PM99 °FScattered clouds.5 mph57%29.62 "Hg3 mi
11:00 AM99 °FScattered clouds.7 mph57%29.65 "Hg3 mi
8:00 AM91 °FHaze.5 mph71%29.65 "Hg2 mi
7:30 AM88 °FHaze.3 mph79%29.65 "Hg2 mi
7:00 AM86 °FScattered clouds.3 mph84%29.62 "Hg2 mi
6:30 AM82 °FScattered clouds.3 mph89%29.62 "Hg2 mi
6:00 AM81 °FPassing clouds.3 mph94%29.62 "Hg2 mi
5:30 AM82 °FHaze.5 mph89%29.62 "Hg2 mi
5:00 AM82 °FHaze.6 mph89%29.62 "Hg2 mi
4:00 AM82 °FHaze.6 mph89%29.62 "Hg2 mi
3:00 AM84 °FHaze.5 mph84%29.62 "Hg2 mi
Weather by CustomWeather, © 2014

See weather overviewHow to use our weather pages